Find Starlink 30221

NORAD ID: 57418 Int'l Des: 2023-102 Owner: SPXS Country: US Constellation: starlink operational
LEOCIRCULAR

当前视图

正在加载3D地球...

About Starlink 30221

Starlink 30221 (NORAD 57418) is a starlink constellation satellite (v2 mini) launched Jul 19, 2023 by SPXS of US. It operates in LEO, CIRCULAR orbit with a mass of 730.00 kg.

即将过境

Passes for default location (London). Set your location on the main map for personalized predictions.

高度历史

Loading altitude history...

两行轨道根数

1 57418U 23102Q 26265.91668981 .00330524 00000-0 31863-2 0 9992
2 57418 42.9994 214.3079 0001692 253.5830 215.5389 15.64674050 5909
Epoch: Sep 22, 2026 • Age: 6 hours

当前状态

高度 379.2 km
远地点 / 近地点 N/A
速度 7.68 km/s
星下点 -24.17°S, 129.72°E
发射日期 Jul 19, 2023
运行时间 3.1 years
类型 internet

技术详情

分类 Payload
质量 730.00 kg
干质量 700.00 kg
长度 0.30 m
跨度 29.00 m
形状 ? Box + pan
制造商 SPXS
平台类型 Starlink V2M
阶段状态 In Orbit
所有者/国家 SPXS/US

Most Searched